Location: Baia Mare
(47.6567°N, 23.5850°E)
Time: 23:17:42
(UTC+03:00)

ISS - Pass Details

Date: 03 October 2018
Orbit: 403 x 408 km, 51.6° (Epoch: 17 October)

Event Time Altitude Azimuth Distance (km) Brightness Sun altitude
Rises 21:33:24 0° 293° (WNW) 2,340 1.4 -25.8°
Reaches altitude 10° 21:35:30 10° 295° (WNW) 1,476 0.0 -26.2°
Enters shadow 21:37:02 25° 297° (WNW) 868 -1.5 -26.4°
